Hourly Weather Roundup
Issued by NWS Central Illinois

Home | Current Version | Previous Version | Text Only | Print | Product List | Glossary On
Versions: 1 2 3 4 5 6 7 8 9 10 11 12 13 14 15 16 17 18 19 20 21 22 23 24 25 26 27 28 29 30 31 32 33 34 35 36 37 38 39 40 41 42 43 44 45 46 47 48 49 50
000
NZUS43 KILX 050010
HWRILX

AREA WEATHER ROUNDUP
NATIONAL WEATHER SERVICE, LINCOLN IL
700 PM CDT FRI SEP 04 2015


CITY           SKY/WX    TMP DP  RH WIND       PRES   REMARKS
BLOOMINGTON    MOCLDY    87  70  57 SE12      30.01R HX  92
6HR MIN TEMP:  88; 6HR MAX TEMP:  95;

CHAMPAIGN      FAIR      81  65  58 SW6       30.01R HX  83
6HR MIN TEMP:  81; 6HR MAX TEMP:  93;

DANVILLE       HVY RAIN  78  71  77 NW17G32   30.03R HX  81
6HR MIN TEMP:  78; 6HR MAX TEMP:  92; 6HR PCP:  0.01;

DECATUR        FAIR      85  65  51 S7        30.00R HX  86
6HR MIN TEMP:  85; 6HR MAX TEMP:  95;

EFFINGHAM      FAIR      85  69  59 CALM      30.02R HX  89
FLORA          FAIR      88  66  48 W3        30.01R HX  90
6HR MIN TEMP:  88; 6HR MAX TEMP:  93;

GALESBURG      FAIR      84  72  67 CALM      29.98R HX  89
JACKSONVILLE   FAIR      87  69  55 CALM      29.98R HX  92
6HR MIN TEMP:  87; 6HR MAX TEMP:  94;

LACON          FAIR      85  74  69 CALM      29.97R HX  92
6HR MIN TEMP:  85; 6HR MAX TEMP:  91;

LAWRENCEVILLE  FAIR      88  67  49 SW3       30.00R HX  91
6HR MIN TEMP:  88; 6HR MAX TEMP:  95;

LITCHFIELD     FAIR      86  68  55 CALM      30.01R HX  89
$$


CITY           SKY/WX    TMP DP  RH WIND       PRES   REMARKS
LINCOLN        FAIR      91  65  41 CALM      29.97R HX  93
6HR MIN TEMP:  91; 6HR MAX TEMP:  96;

MACOMB         FAIR      87  68  52 S3        30.00R HX  90
MATTOON        FAIR      88  66  48 SW5       30.00R HX  90
6HR MIN TEMP:  88; 6HR MAX TEMP:  93;

MT CARMEL AP   FAIR      86  68  54 SW3       30.00R HX  89
OLNEY-NOBLE AP FAIR      82  72  69 CALM      30.00S HX  87
PARIS          FAIR      81  70  69 CALM      30.02R HX  85
6HR MIN TEMP:  81; 6HR MAX TEMP:  94;

PEORIA         FAIR      90  70  51 CALM      29.98R HX  95
6HR MIN TEMP:  90; 6HR MAX TEMP:  98;

PONTIAC        MOCLDY    89  75  63 CALM      30.00S HX  98
RANTOUL        CLOUDY    84  72  67 E18       30.00  THUNDER HX  89
ROBINSON       FAIR      85  74  70 CALM      30.01R HX  92
6HR MIN TEMP:  85; 6HR MAX TEMP:  93;

SPRINGFIELD    FAIR      88  68  51 S7        29.99R HX  91
6HR MIN TEMP:  88; 6HR MAX TEMP:  96;

TAYLORVILLE    FAIR      86  68  54 S3        30.00R HX  89
$$

...REGIONAL REPORTS...


CITY           SKY/WX    TMP DP  RH WIND       PRES   REMARKS
CHICAGO O`HARE FAIR      73  67  81 E10       30.03R
KANKAKEE       FAIR      75  69  81 SE3       30.02S
MOLINE         FAIR      87  69  54 S3        29.96R HX  91
MOUNT STERLING FAIR      85  71  64 S3        29.98S HX  90
MOUNT VERNON   FAIR      82  70  65 CALM      30.01R HX  86
PITTSFIELD     FAIR      87  70  56 S5        30.00R HX  92
QUINCY         FAIR      88  68  51 S6        29.97S HX  91
ROCKFORD       FAIR      85  71  63 SE3       30.00S HX  90
$$


CITY           SKY/WX    TMP DP  RH WIND       PRES   REMARKS
BURLINGTON     FAIR      87  71  58 S5        29.97R HAZE    HX  93
CEDAR RAPIDS   FAIR      85  74  69 S3        29.96R HX  92
DES MOINES     FAIR      87  71  58 S7        29.93S HX  93
KIRKSVILLE     MOCLDY    85  70  60 S6        29.98R HX  89
OTTUMWA        FAIR      84  73  69 S6        29.94R HX  90
ST LOUIS       FAIR      90  67  46 SW5       29.99S HX  93
$$


CITY           SKY/WX    TMP DP  RH WIND       PRES   REMARKS
TERRE HAUTE    FAIR      83  68  60 CALM      30.02R HX  86
EVANSVILLE     FAIR      87  67  51 NW3       30.00S HX  90
INDIANAPOLIS   CLOUDY    80  64  58 NE6       30.05R THUNDER HX  82
LAFAYETTE      LGT RAIN  76  67  73 S3        30.02R
MADISON        FAIR      79  70  74 E8        30.00R HX  82
MILWAUKEE      MOCLDY    68  64  87 E8        30.04R
$$





USA.gov is the U.S. government's official web portal to all federal, state and local government web resources and services.